Probability
17 18 16 14 11 7 4 4 5 6 7 8 9 10 10 9 9 7 5 2 1 1 2 2 1 1 3 3 2 2 1 0 1 2 2 2 2 3 2 1 1 0 0
17 17 16 13 10 7 4 4 4 4 5 7 8 9 9 8 7 6 5 4 2 1 1 2 2 1 1 1 2 2 1 0 0 1 1 1 1 2 2 2 2 1 1
16 16 16 14 11 6 5 5 5 4 4 5 6 7 7 7 6 4 4 5 4 2 1 1 1 0 0 0 2 3 2 1 0 0 0 0 0 0 1 2 2 2 2
14 15 15 14 10 7 6 6 6 5 4 3 4 5 5 5 4 3 3 4 5 3 1 0 0 0 0 0 1 2 2 1 0 0 0 0 0 0 0 1 1 2 3
11 12 13 11 8 7 7 7 6 4 3 3 3 3 2 3 3 2 2 3 4 3 1 0 0 0 0 0 0 1 1 0 0 0 0 0 0 0 0 0 0 1 2
6 8 10 10 8 8 8 7 6 4 3 2 1 1 0 1 1 1 1 1 3 3 2 0 0 0 0 0 0 0 0 0 0 0 0 0 0 0 0 0 0 0 1
4 5 8 9 8 8 8 7 5 3 2 1 0 0 0 0 0 0 0 1 2 2 1 0 0 0 0 0 0 0 0 0 0 0 0 0 0 0 0 0 0 0 0
2 4 7 9 9 8 8 7 3 1 1 0 0 0 0 0 0 0 0 0 1 1 0 0 0 0 0 0 0 0 0 0 0 0 0 0 0 0 0 0 0 0 0
2 3 6 9 9 7 6 4 2 1 0 0 0 0 0 0 0 0 0 0 0 0 0 0 0 0 0 0 0 0 0 0 0 0 0 0 0 0 0 0 0 0 0
2 3 6 9 9 7 4 3 2 1 0 0 0 0 0 0 0 0 0 0 0 0 0 0 0 0 0 0 0 0 0 0 0 0 0 0 0 0 0 0 0 0 0
2 3 5 7 7 5 3 3 3 2 0 0 0 0 0 0 0 0 0 0 0 0 0 0 0 0 0 0 0 0 0 0 0 0 0 0 0 0 0 0 0 0 0
2 3 5 6 6 4 3 3 3 2 1 1 1 1 1 1 1 1 0 0 0 0 0 0 0 0 0 0 0 0 0 0 0 0 0 0 0 0 0 0 0 1 1
3 3 5 6 6 5 4 3 3 3 3 2 2 2 2 2 2 2 1 0 0 0 0 0 0 0 0 0 0 0 0 0 0 0 0 0 0 0 0 0 0 1 1
3 3 4 4 4 4 3 3 3 3 3 3 3 3 3 3 3 3 2 1 0 0 0 0 0 0 0 0 0 0 0 0 0 0 0 0 0 0 0 0 0 0 1
3 3 2 1 1 2 3 3 3 3 3 3 3 3 3 3 3 3 3 1 0 0 0 0 0 0 0 0 0 0 0 0 0 0 0 0 0 0 0 0 0 0 0
4 3 2 1 0 1 2 3 3 3 3 3 3 3 3 3 3 3 3 2 1 0 0 0 0 0 0 0 0 0 0 0 0 0 0 0 0 0 0 0 0 0 0
4 4 3 2 1 0 1 1 2 3 3 3 3 3 3 3 3 3 3 3 2 1 0 0 0 0 0 0 0 0 0 0 0 0 0 0 0 0 0 0 0 0 0
3 3 2 2 2 1 0 0 1 1 2 3 3 3 3 3 3 3 3 3 3 2 1 0 0 0 0 0 0 0 0 0 0 0 0 0 0 0 0 0 0 0 0
1 1 0 1 1 1 0 0 0 0 1 1 2 3 3 3 3 3 3 3 3 3 2 1 0 0 0 0 0 0 0 0 0 0 0 0 0 0 0 0 0 0 0
0 0 0 0 0 0 0 0 0 0 0 0 1 2 3 3 3 3 3 3 3 3 3 1 0 0 0 0 0 0 0 0 0 0 0 0 0 0 0 0 0 0 0
0 0 0 0 0 0 0 0 0 0 1 1 0 1 2 3 3 3 3 3 3 3 3 2 1 0 0 0 0 0 0 0 0 0 0 0 0 0 0 0 0 0 0
0 0 0 0 0 0 0 0 0 0 1 2 1 1 1 3 3 3 3 3 3 3 3 3 1 0 0 0 0 0 0 0 0 0 0 0 0 0 0 0 0 0 0
0 0 0 0 0 0 0 0 0 0 1 2 2 2 2 2 3 3 3 3 3 3 3 3 2 1 0 0 0 0 0 0 0 0 0 0 0 0 0 0 0 0 0
0 0 0 0 0 0 0 0 0 0 0 1 2 2 2 2 2 3 3 3 3 3 3 3 3 2 1 1 1 0 0 0 0 0 0 0 0 0 0 0 0 0 0
0 0 0 0 0 0 0 0 0 0 0 0 1 1 2 2 2 2 2 2 2 2 3 3 3 3 2 2 1 0 0 0 0 0 0 0 0 0 0 0 0 0 0
0 0 0 0 0 0 0 0 0 0 0 0 0 0 1 1 1 1 1 1 1 1 2 3 3 3 2 1 1 0 0 0 0 0 0 0 0 0 0 0 0 0 0
Wind_Speed
2 4 3 2 2 2 2 1 1 0 1 1 0 0 1 1 1 1 1 1 1 1 1 1 1 1 1 2 2 1 2 2 1 0 2 3 3 2 2 2 2 3 3
2 3 2 3 2 2 1 1 1 0 1 1 1 1 1 1 1 1 1 2 2 1 1 2 2 2 2 2 2 1 1 1 1 2 0 2 3 3 2 1 2 3 2
4 3 2 2 2 1 1 1 1 0 1 0 0 1 1 1 1 1 1 2 2 2 2 3 2 3 3 3 3 2 3 2 2 2 3 2 3 2 2 2 2 2 2
2 2 2 2 1 1 1 1 0 1 1 0 1 1 1 1 3 3 2 3 3 3 3 2 3 3 3 3 3 3 2 3 2 2 2 3 3 2 2 2 2 2 2
2 2 2 2 2 1 1 0 1 1 2 1 1 1 1 2 2 2 2 3 3 3 3 3 2 3 3 3 3 2 2 2 3 2 2 1 1 2 2 2 3 2 2
2 2 2 2 1 1 0 1 1 2 2 2 1 1 1 2 2 2 2 2 2 2 3 2 2 3 3 3 3 3 3 3 3 3 2 2 2 2 2 2 2 2 3
1 1 1 1 1 1 1 1 1 2 3 3 2 2 2 2 2 3 3 2 2 2 3 2 3 3 3 3 3 3 4 4 4 4 3 2 3 2 2 2 2 2 2
1 2 2 1 1 2 1 1 2 3 3 2 2 2 2 1 2 3 3 3 3 3 4 3 3 3 4 3 3 3 4 3 3 4 3 2 2 2 3 3 3 1 2
1 1 1 1 2 2 2 2 2 3 3 3 2 2 2 2 2 3 2 2 3 3 3 3 3 3 3 3 3 2 3 3 3 3 3 2 2 2 2 3 3 3 2
1 1 1 1 2 2 2 2 2 2 2 2 2 2 2 2 3 3 3 3 3 3 3 3 3 3 3 3 2 2 2 2 2 2 2 2 2 2 2 2 2 3 3
1 1 2 2 2 2 2 2 2 2 2 2 2 2 3 3 3 3 4 3 3 4 4 4 4 4 3 2 2 2 2 2 2 2 2 2 2 2 2 2 2 2 2
1 1 1 1 2 2 3 2 2 3 3 3 3 3 3 3 3 4 4 3 4 4 4 3 3 3 3 2 2 2 2 2 3 2 2 2 2 2 2 2 2 2 3
1 1 2 2 2 3 3 3 3 3 3 3 3 3 3 3 3 4 3 3 3 3 3 3 3 3 3 2 2 3 3 3 3 3 3 3 2 2 2 2 2 2 2
1 1 2 3 3 3 3 3 4 3 3 3 3 3 3 3 3 3 3 3 3 2 2 2 2 3 3 2 2 2 2 2 3 3 3 3 3 4 3 3 3 3 2
2 2 2 3 3 4 4 3 4 4 3 3 4 4 3 3 3 3 2 2 1 1 1 2 2 2 2 2 2 2 2 2 2 2 2 3 4 4 4 3 3 2 2
3 3 3 4 4 4 4 4 4 4 3 3 3 3 3 3 2 2 2 2 2 1 1 1 2 2 2 3 3 3 2 2 3 3 3 3 3 3 4 5 4 4 4
4 4 5 4 4 5 4 4 4 4 3 3 3 3 3 3 3 2 2 1 2 1 1 2 2 2 3 4 4 4 3 3 3 3 3 3 2 2 2 3 3 3 4
4 4 5 5 6 5 4 4 4 3 3 3 4 3 3 3 2 2 2 2 2 2 2 2 3 2 3 4 4 4 3 3 3 4 4 3 2 2 2 2 1 2 3
2 3 4 4 5 5 5 4 4 4 3 4 4 3 2 2 3 3 3 3 2 3 2 2 2 2 3 3 3 2 1 1 2 3 2 3 3 3 3 2 1 2 3
3 4 4 4 4 5 4 4 5 4 5 4 3 3 2 2 2 3 2 2 1 2 2 2 1 1 2 2 2 2 1 1 1 1 1 3 3 2 2 2 2 2 3
4 4 4 4 5 5 4 4 4 5 5 4 3 3 3 3 2 2 2 2 1 1 2 2 2 1 2 2 2 2 2 2 1 1 1 1 2 2 2 2 2 4 3
4 4 4 5 5 4 3 4 5 5 4 4 3 3 3 3 2 1 2 2 1 1 2 1 2 2 2 1 1 2 3 2 2 2 1 2 3 3 2 2 3 4 2
4 4 4 5 6 5 3 4 6 5 4 4 4 4 4 3 3 2 2 2 1 1 1 1 1 2 2 2 2 1 2 2 1 1 2 2 3 3 2 2 4 2 1
4 4 4 5 6 6 5 4 5 4 3 4 4 3 3 3 3 2 1 1 1 1 1 1 2 2 2 2 1 0 0 0 0 1 1 1 2 2 2 2 2 1 2
4 3 4 5 6 6 5 5 5 3 3 4 3 3 3 2 2 2 2 2 3 3 3 2 2 2 2 4 3 2 1 1 1 1 1 1 1 2 2 2 1 1 1
4 4 5 5 6 6 5 5 5 3 3 3 3 2 2 2 1 2 3 4 3 4 3 4 3 3 4 3 2 1 1 1 1 2 1 0 1 1 1 1 1 1 0
Wind_Direction
118 96 99 109 103 93 97 90 65 42 124 99 95 209 284 272 248 227 243 217 220 201 180 223 221 200 191 214 225 227 236 241 216 306 307 301 281 262 240 231 219 225 227
95 84 92 100 95 77 59 47 38 330 266 223 208 211 221 251 246 253 248 233 224 216 198 209 214 208 206 223 231 207 218 244 171 147 108 322 325 314 283 263 236 246 247
145 139 118 110 106 93 76 51 336 331 285 280 43 359 15 346 339 301 265 246 226 225 221 215 212 214 198 213 227 215 200 225 243 172 158 167 237 290 305 277 259 252 249
116 110 113 101 102 176 145 115 352 346 330 4 148 222 237 256 261 260 263 266 244 240 240 231 214 217 212 219 229 216 206 193 226 230 199 188 180 182 292 313 289 264 252
144 126 126 146 182 204 187 162 1 342 320 306 223 259 281 271 279 285 281 280 274 251 238 240 229 227 229 230 230 222 209 199 202 207 201 202 198 185 183 270 297 305 274
157 149 148 162 171 236 321 356 331 306 297 298 289 248 255 280 285 282 281 282 279 267 252 245 240 233 232 234 231 223 214 211 209 208 195 182 183 203 190 218 258 282 284
151 165 170 201 218 253 299 316 307 299 302 303 293 259 248 246 250 255 255 259 257 264 262 252 246 246 239 233 226 224 227 214 210 215 212 203 201 188 178 186 230 263 287
225 201 202 217 238 242 264 278 279 284 289 292 286 272 260 261 261 250 243 245 241 244 246 244 249 253 253 245 228 226 229 217 211 217 205 204 212 193 181 181 179 239 289
249 224 228 228 248 245 249 244 259 281 287 288 290 277 272 267 270 268 249 247 247 249 251 255 257 256 254 248 233 228 237 218 212 207 195 204 213 198 196 190 177 177 232
313 299 285 280 275 270 268 277 280 280 283 296 288 281 270 261 268 271 262 254 253 255 259 257 256 253 253 250 227 229 228 204 207 199 196 213 209 204 200 198 196 185 189
307 303 313 306 315 329 323 304 300 307 309 307 305 298 283 274 273 271 264 258 255 255 254 254 251 247 249 245 225 224 210 197 210 214 202 215 204 201 206 201 199 200 184
314 318 336 348 339 328 319 313 307 303 295 297 300 290 284 280 277 277 279 270 257 252 247 254 244 239 235 230 214 213 207 193 195 211 205 217 207 197 206 202 212 215 205
337 337 349 338 314 310 308 309 304 293 295 298 297 288 289 291 285 286 288 277 258 256 250 249 235 233 226 222 220 209 207 201 197 204 205 212 195 215 220 208 218 227 227
356 1 339 323 316 308 297 301 300 292 297 301 295 290 284 280 279 279 281 274 263 252 248 241 233 228 221 219 219 208 201 205 206 209 211 211 203 211 216 215 223 226 222
360 354 317 306 308 311 304 300 294 295 294 299 300 293 288 291 295 296 302 306 292 260 236 234 251 239 220 225 218 210 207 201 205 220 225 220 212 216 210 214 215 208 206
334 320 310 312 308 304 301 305 304 300 301 300 298 301 309 317 315 309 313 332 331 313 300 255 248 251 247 239 234 221 207 208 210 223 237 240 233 233 232 233 221 204 198
337 331 323 308 297 297 296 293 291 296 305 302 301 308 314 317 311 315 338 319 302 311 309 280 254 264 262 242 239 235 217 213 217 215 219 236 233 228 225 243 251 255 243
344 334 325 320 314 310 307 305 314 321 318 316 314 312 313 310 306 318 311 296 295 291 283 271 253 257 266 246 240 239 219 216 221 213 207 206 217 226 204 205 250 270 269
315 307 309 312 325 326 321 328 331 332 336 328 319 312 306 309 312 304 293 283 287 292 284 280 262 252 274 268 249 222 206 218 241 233 209 194 206 229 208 181 215 285 297
334 331 327 331 334 325 331 339 329 334 323 310 303 304 304 302 293 281 276 276 278 288 302 314 292 256 271 280 249 208 180 207 252 254 227 215 210 229 216 182 190 252 277
329 332 337 331 317 318 334 333 324 315 301 302 305 312 307 297 290 285 281 299 309 324 319 312 307 294 273 278 255 216 178 193 217 229 230 237 225 244 256 217 205 235 258
338 339 336 325 314 319 335 325 310 296 301 307 312 314 309 308 324 312 307 315 320 320 307 318 323 314 302 287 274 231 211 191 175 220 240 244 243 256 270 260 251 262 277
321 320 323 317 313 312 312 303 295 302 313 316 310 308 314 314 315 304 299 312 309 294 293 299 301 304 309 317 305 262 217 205 187 230 238 244 259 276 284 271 265 263 231
311 315 325 322 313 311 311 295 298 310 322 318 308 307 316 321 328 328 300 280 281 270 273 268 276 293 308 309 297 265 212 302 277 299 327 326 310 293 285 298 302 265 219
296 303 309 306 302 309 315 313 315 322 328 322 315 316 316 310 327 329 307 276 260 232 218 235 233 242 276 271 235 176 172 193 195 79 43 27 16 360 336 320 301 304 339
302 310 308 308 307 310 312 313 314 320 326 325 321 309 301 300 299 305 319 318 288 286 255 240 234 249 245 254 237 212 218 188 125 105 99 297 281 267 267 275 294 298 264